STARLINK-35453

Last updated on Mon Oct 20 2025 00:02:07 GMT+0000 (Coordinated Universal Time)

1 65878U 25223AA 25292.25002315 -.01911427 00000+0 -21846-1 0 9994 2 65878 53.1596 234.9217 0001340 84.7353 50.8608 15.64693471 3737
UTC large
Height (km)
Speed (km/s)
/
Latitude / Longitude
Inclination (degrees)
Orbital Period (minutes)
Azimuth
Elevation
Range (km)
Doppler Factor

Next 0 passes for location: London (51.5072 / 0.1276)

Sorry there are no passes over London.